EW3883 Weather Reports


Display with metric or nautical units.
time (UTC)temp
F
wind
direction
speed
MPH
gust
MPH
rain 1hr
in
rain 24hr
in
rain mn
in
humidity
%
barometer
mb
20260503173539 65 133 0.0 5.0 0.00 0.00 0.00 41 1018.8
20260503173059 66 72 0.0 5.0 0.00 0.00 0.00 40 1018.9
20260503172540 66 125 0.0 5.0 0.00 0.00 0.00 42 1018.9
20260503172035 66 302 0.0 2.0 0.00 0.00 0.00 41 1019.0
20260503171548 66 90 0.0 3.0 0.00 0.00 0.00 47 1019.1
20260503171039 65 0 0.0 3.0 0.00 0.00 0.00 43 1019.4
20260503170539 65 123 0.0 3.0 0.00 0.00 0.00 43 1019.6
20260503150539 59 0 0.0 2.0 0.00 0.00 0.00 54 1020.9
20260503131037 47 0 0.0 1.0 0.00 0.00 0.00 77 1020.9
20260503130537 47 0 0.0 1.0 0.00 0.00 0.00 77 1020.9
20260503110541 35 0 0.0 0.0 0.00 0.00 0.00 90 1020.2
20260503081547 35 0 0.0 0.0 0.00 0.00 0.00 91 1019.5
20260503081036 35 0 0.0 0.0 0.00 0.00 0.00 91 1019.6
20260503080536 35 0 0.0 0.0 0.00 0.00 0.00 91 1019.5
20260503072541 36 0 0.0 0.0 0.00 0.00 0.00 91 1019.4
20260503072036 36 0 0.0 0.0 0.00 0.00 0.00 91 1019.5
20260503071546 36 0 0.0 0.0 0.00 0.00 0.00 91 1019.5
20260503071040 36 0 0.0 0.0 0.00 0.00 0.00 91 1019.4
20260503070536 36 0 0.0 0.0 0.00 0.00 0.00 90 1019.5
20260503055036 37 0 0.0 0.0 0.00 0.00 0.00 87 1020.0
20260503054550 37 0 0.0 0.0 0.00 0.00 0.00 86 1020.0
20260503054039 37 0 0.0 0.0 0.00 0.00 0.00 86 1019.9
20260503053537 37 0 0.0 0.0 0.00 0.00 0.00 86 1020.0
20260503053049 37 0 0.0 0.0 0.00 0.00 0.00 86 1019.9
20260503052537 37 0 0.0 0.0 0.00 0.00 0.00 85 1019.9
20260503052036 37 0 0.0 0.0 0.00 0.00 0.00 85 1019.9
20260503051544 38 0 0.0 0.0 0.00 0.00 0.00 85 1019.8
20260503051039 38 0 0.0 0.0 0.00 0.00 0.00 85 1019.8
20260503050537 38 0 0.0 0.0 0.00 0.00 0.00 84 1019.8
20260503050052 38 0 0.0 0.0 0.00 0.00 0.00 83 1019.8
20260503045539 38 0 0.0 0.0 0.00 0.00 0.00 83 1019.8
20260503045036 38 0 0.0 0.0 0.00 0.00 0.00 83 1019.8
20260503044547 38 0 0.0 0.0 0.00 0.00 0.00 82 1019.9
20260503044036 38 0 0.0 0.0 0.00 0.00 0.00 81 1019.9
20260503043536 38 0 0.0 0.0 0.00 0.00 0.00 81 1019.8
20260503043057 38 0 0.0 0.0 0.00 0.00 0.00 81 1019.8
20260503042536 38 0 0.0 0.0 0.00 0.00 0.00 80 1019.8
20260503042039 38 0 0.0 0.0 0.00 0.00 0.00 80 1019.9
20260503041550 39 0 0.0 0.0 0.00 0.00 0.00 79 1019.9
20260503041038 39 0 0.0 0.0 0.00 0.00 0.00 79 1019.8
20260503040538 39 0 0.0 0.0 0.00 0.00 0.00 79 1019.9
20260503040100 39 0 0.0 0.0 0.00 0.00 0.00 79 1020.0
20260503035536 39 0 0.0 0.0 0.00 0.00 0.00 78 1019.9
20260503035036 39 0 0.0 0.0 0.00 0.00 0.00 77 1019.9
20260503034552 39 0 0.0 0.0 0.00 0.00 0.00 76 1019.9
20260503034041 40 0 0.0 0.0 0.00 0.00 0.00 75 1020.1
20260503033535 40 0 0.0 0.0 0.00 0.00 0.00 75 1020.1
20260503033058 40 0 0.0 0.0 0.00 0.00 0.00 75 1020.1
20260503032539 40 0 0.0 0.0 0.00 0.00 0.00 74 1020.1
20260503032039 40 0 0.0 0.0 0.00 0.00 0.00 73 1020.1
20260503031552 40 0 0.0 0.0 0.00 0.00 0.00 72 1020.1
20260503031039 41 0 0.0 0.0 0.00 0.00 0.00 72 1020.1
20260503030539 41 0 0.0 0.0 0.00 0.00 0.00 72 1020.1
20260503030118 41 0 0.0 0.0 0.00 0.00 0.00 71 1020.1
20260503025543 41 0 0.0 0.0 0.00 0.00 0.00 71 1020.1
20260503025037 41 0 0.0 0.0 0.00 0.00 0.00 71 1020.0
20260503024550 41 0 0.0 0.0 0.00 0.00 0.00 70 1020.0
20260503024039 42 0 0.0 0.0 0.00 0.00 0.00 70 1020.1
20260503023537 42 0 0.0 0.0 0.00 0.00 0.00 69 1020.0
20260503023048 42 0 0.0 0.0 0.00 0.00 0.00 69 1020.0
20260503022535 42 0 0.0 0.0 0.00 0.00 0.00 68 1020.0
20260503022039 43 0 0.0 0.0 0.00 0.00 0.00 68 1019.9
20260503021550 43 0 0.0 0.0 0.00 0.00 0.00 68 1019.9
20260503021036 43 0 0.0 0.0 0.00 0.00 0.00 67 1019.8
20260503020540 43 0 0.0 0.0 0.00 0.00 0.00 68 1019.8
20260503020052 43 0 0.0 0.0 0.00 0.00 0.00 66 1019.7
20260503015539 44 0 0.0 0.0 0.00 0.00 0.00 66 1019.6
20260503015039 44 0 0.0 1.0 0.00 0.00 0.00 66 1019.7
20260503014603 44 0 0.0 1.0 0.00 0.00 0.00 65 1019.5
20260503014039 44 0 0.0 1.0 0.00 0.00 0.00 66 1019.5
20260503013536 44 0 0.0 1.0 0.00 0.00 0.00 65 1019.5
20260503013042 45 0 0.0 1.0 0.00 0.00 0.00 64 1019.4
20260503012539 45 0 0.0 1.0 0.00 0.00 0.00 64 1019.3
20260503012045 45 0 0.0 1.0 0.00 0.00 0.00 62 1019.3
20260503011557 45 0 0.0 1.0 0.00 0.00 0.00 61 1019.2
20260503011038 46 281 0.0 1.0 0.00 0.00 0.00 61 1019.1
20260503010539 46 0 0.0 1.0 0.00 0.00 0.00 60 1019.0
20260503010055 46 0 0.0 1.0 0.00 0.00 0.00 61 1019.1
20260503005540 47 0 0.0 2.0 0.00 0.00 0.00 60 1019.0
20260503005038 47 286 0.0 2.0 0.00 0.00 0.00 58 1018.9
20260503004546 47 278 0.0 2.0 0.00 0.00 0.00 58 1018.9
20260503004037 47 0 0.0 4.0 0.00 0.00 0.00 57 1018.9
20260503003537 48 285 0.0 4.0 0.00 0.00 0.00 57 1018.9
20260503003059 48 285 1.0 4.0 0.00 0.00 0.00 55 1018.8
20260503002540 48 278 0.0 2.0 0.00 0.00 0.00 55 1018.8
20260503002041 48 241 0.0 4.0 0.00 0.00 0.00 56 1018.7
20260503001551 49 0 0.0 4.0 0.00 0.00 0.00 54 1018.6
20260503001044 49 0 0.0 4.0 0.00 0.00 0.00 54 1018.5
20260503000536 49 0 0.0 4.0 0.00 0.00 0.00 54 1018.5
20260503000054 49 0 0.0 6.0 0.00 0.00 0.00 54 1018.4
20260502235539 50 289 1.0 6.0 0.00 0.00 0.00 53 1018.4
20260502235039 50 290 0.0 3.0 0.00 0.00 0.00 53 1018.3
20260502234549 50 340 0.0 4.0 0.00 0.00 0.00 53 1018.4
20260502234036 50 283 0.0 4.0 0.00 0.00 0.00 52 1018.2
20260502233536 51 281 1.0 3.0 0.00 0.00 0.00 51 1018.3
20260502233048 51 0 1.0 4.0 0.00 0.00 0.00 52 1018.2
20260502232539 51 271 0.0 4.0 0.00 0.00 0.00 51 1018.2
20260502232039 52 281 0.0 5.0 0.00 0.00 0.00 50 1018.1
20260502231550 52 0 1.0 5.0 0.00 0.00 0.00 51 1018.1
20260502231040 52 0 0.0 3.0 0.00 0.00 0.00 54 1018.1
20260502230541 52 0 0.0 3.0 0.00 0.00 0.00 51 1018.1
20260502230046 52 274 0.0 4.0 0.00 0.00 0.00 51 1018.1
20260502225539 52 0 1.0 4.0 0.00 0.00 0.00 50 1018.1
20260502225038 52 0 1.0 4.0 0.00 0.00 0.00 50 1018.1
20260502224544 52 272 1.0 5.0 0.00 0.00 0.00 50 1018.1
20260502224039 52 0 0.0 7.0 0.00 0.00 0.00 51 1018.0
20260502223543 52 342 1.0 7.0 0.00 0.00 0.00 50 1018.0
20260502223044 52 281 2.0 7.0 0.00 0.00 0.00 49 1018.1
20260502222538 53 264 0.0 4.0 0.00 0.00 0.00 49 1018.1
20260502222038 53 0 0.0 6.0 0.00 0.00 0.00 50 1018.0
20260502221549 53 137 0.0 6.0 0.00 0.00 0.00 50 1018.0
20260502221040 53 0 0.0 4.0 0.00 0.00 0.00 48 1018.0
20260502220537 53 0 0.0 4.0 0.00 0.00 0.00 50 1017.9
20260502220048 54 273 0.0 4.0 0.00 0.00 0.00 48 1017.9
20260502215539 54 92 1.0 4.0 0.00 0.00 0.00 50 1018.0
20260502215043 54 0 1.0 3.0 0.00 0.00 0.00 53 1018.0
20260502214552 53 273 0.0 3.0 0.00 0.00 0.00 51 1017.9
20260502214040 54 56 0.0 3.0 0.00 0.00 0.00 50 1017.8
20260502213539 54 0 1.0 6.0 0.00 0.00 0.00 50 1017.9
20260502213047 54 0 0.0 6.0 0.00 0.00 0.00 49 1017.8
20260502212539 54 283 0.0 6.0 0.00 0.00 0.00 47 1017.8
20260502212039 54 0 1.0 4.0 0.00 0.00 0.00 46 1017.8
20260502211553 54 0 1.0 4.0 0.00 0.00 0.00 47 1017.8
20260502211039 55 250 0.0 4.0 0.00 0.00 0.00 47 1017.8
20260502210538 55 276 0.0 7.0 0.00 0.00 0.00 46 1017.7
20260502210050 56 0 2.0 7.0 0.00 0.00 0.00 46 1017.7
20260502205542 56 274 0.0 6.0 0.00 0.00 0.00 47 1017.7
20260502205038 56 230 1.0 6.0 0.00 0.00 0.00 45 1017.6
20260502204602 56 0 0.0 4.0 0.00 0.00 0.00 47 1017.6
20260502204038 55 103 0.0 6.0 0.00 0.00 0.00 48 1017.7
20260502203537 54 27 1.0 6.0 0.00 0.00 0.00 48 1017.7
20260502203108 55 1 1.0 4.0 0.00 0.00 0.00 47 1017.8
20260502202542 55 317 1.0 3.0 0.00 0.00 0.00 47 1017.8
20260502202039 55 0 1.0 5.0 0.00 0.00 0.00 47 1017.8
20260502201545 56 279 2.0 5.0 0.00 0.00 0.00 43 1017.8
20260502201042 58 293 1.0 3.0 0.00 0.00 0.00 45 1017.9
20260502200540 57 236 0.0 5.0 0.00 0.00 0.00 47 1017.9
20260502200052 57 0 1.0 5.0 0.00 0.00 0.00 42 1017.9
20260502195538 57 300 1.0 5.0 0.00 0.00 0.00 46 1018.1
20260502195039 57 315 0.0 7.0 0.00 0.00 0.00 44 1018.0
20260502194544 57 221 2.0 7.0 0.00 0.00 0.00 46 1018.1
20260502194038 57 274 1.0 4.0 0.00 0.00 0.00 47 1018.0
20260502193538 57 0 1.0 4.0 0.00 0.00 0.00 45 1018.1
20260502193051 57 0 0.0 4.0 0.00 0.00 0.00 47 1017.9
20260502192538 57 44 1.0 4.0 0.00 0.00 0.00 48 1018.1
20260502192038 58 12 0.0 5.0 0.00 0.00 0.00 47 1018.1
20260502191556 58 272 1.0 5.0 0.00 0.00 0.00 45 1018.0
20260502191039 58 297 0.0 5.0 0.00 0.00 0.00 49 1018.1
20260502190538 57 0 1.0 5.0 0.00 0.00 0.00 50 1018.1
20260502190054 55 346 1.0 5.0 0.00 0.00 0.00 49 1018.1
20260502185537 54 284 0.0 3.0 0.00 0.00 0.00 52 1018.2
20260502185040 54 5 1.0 6.0 0.00 0.00 0.00 50 1018.2
20260502184551 55 0 0.0 6.0 0.00 0.00 0.00 50 1018.3
20260502184039 55 263 1.0 6.0 0.00 0.00 0.00 48 1018.3
20260502183538 56 278 0.0 5.0 0.00 0.00 0.00 48 1018.4
20260502183044 56 99 0.0 4.0 0.00 0.00 0.00 50 1018.4
20260502182539 56 121 1.0 4.0 0.00 0.00 0.00 57 1018.4
20260502182039 54 46 0.0 4.0 0.00 0.00 0.00 53 1018.5
20260502181603 54 279 1.0 4.0 0.00 0.00 0.00 51 1018.4
20260502181043 54 0 0.0 4.0 0.00 0.00 0.00 51 1018.5
20260502180540 55 355 0.0 4.0 0.00 0.00 0.00 50 1018.5